Location: Bamazo
(6.7448°N, 10.8189°W)
Time: 03:16:52
(UTC+00:00)

Cosmos 923 Rocket - Pass Details

Date: 18 September 2020
Orbit: 759 x 784 km, 74.0° (Epoch: 23 October)

Event Time Altitude Azimuth Distance (km) Brightness Sun altitude
Rises 19:49:03 0° 349° (N) 3,206 7.4 -17.7°
Reaches altitude 10° 19:51:25 10° 351° (N) 2,280 6.6 -18.3°
Maximum altitude 19:56:35 80° 78° (ENE) 771 3.8 -19.5°
Drops below altitude 10° 20:01:46 10° 165° (SSE) 2,286 6.3 -20.8°
Enters shadow 20:03:02 - 165° (SSE) 2,778 6.7 -21.1°
